TimeCST,TemperatureF,Dew PointF,Humidity,Sea Level PressureIn,VisibilityMPH,Wind Direction,Wind SpeedMPH,Gust SpeedMPH,PrecipitationIn,Events,Conditions,WindDirDegrees,DateUTC
12:56 AM,48.0,46.0,93,30.21,10.0,Calm,Calm,-,N/A,,Clear,0,2013-01-20 06:56:00
1:56 AM,46.9,46.0,97,30.20,7.0,North,3.5,-,N/A,,Clear,10,2013-01-20 07:56:00
2:56 AM,46.0,45.0,96,30.19,7.0,Calm,Calm,-,N/A,,Clear,0,2013-01-20 08:56:00
3:10 AM,44.6,44.6,100,30.20,9.0,North,3.5,-,N/A,,Scattered Clouds,10,2013-01-20 09:10:00
3:19 AM,44.6,44.6,100,30.19,9.0,Calm,Calm,-,N/A,,Mostly Cloudy,0,2013-01-20 09:19:00
3:56 AM,44.1,43.0,96,30.18,9.0,North,4.6,-,N/A,,Overcast,350,2013-01-20 09:56:00
4:26 AM,44.6,44.6,100,30.19,1.8,NNW,3.5,-,N/A,,Overcast,340,2013-01-20 10:26:00
4:29 AM,44.6,44.6,100,30.19,0.8,NNW,3.5,-,N/A,,Mist,340,2013-01-20 10:29:00
4:56 AM,43.0,43.0,100,30.18,0.2,NNW,4.6,-,N/A,Fog,Fog,330,2013-01-20 10:56:00
5:26 AM,42.8,42.8,100,30.20,0.5,NNW,3.5,-,N/A,Fog,Fog,340,2013-01-20 11:26:00
5:34 AM,42.8,42.8,100,30.21,0.2,Calm,Calm,-,N/A,Fog,Fog,0,2013-01-20 11:34:00
5:56 AM,44.1,44.1,100,30.19,0.2,Calm,Calm,-,N/A,Fog,Fog,0,2013-01-20 11:56:00
6:14 AM,42.8,42.8,100,30.21,0.5,NNW,3.5,-,N/A,Fog,Fog,340,2013-01-20 12:14:00
6:56 AM,42.1,42.1,100,30.20,0.5,Calm,Calm,-,N/A,Fog,Fog,0,2013-01-20 12:56:00
7:32 AM,42.8,42.8,100,30.22,0.2,Calm,Calm,-,N/A,Fog,Fog,0,2013-01-20 13:32:00
7:56 AM,42.1,42.1,100,30.22,0.2,North,3.5,-,N/A,Fog,Fog,350,2013-01-20 13:56:00
8:20 AM,46.4,46.4,100,30.24,0.5,Calm,Calm,-,N/A,Fog,Fog,0,2013-01-20 14:20:00
8:27 AM,46.4,46.4,100,30.24,0.2,Calm,Calm,-,N/A,Fog,Fog,0,2013-01-20 14:27:00
8:39 AM,48.2,48.2,100,30.24,1.0,Calm,Calm,-,N/A,,Mist,0,2013-01-20 14:39:00
8:45 AM,50.0,50.0,100,30.24,3.0,Calm,Calm,-,N/A,,Overcast,0,2013-01-20 14:45:00
8:56 AM,51.1,51.1,100,30.24,6.0,Calm,Calm,-,N/A,,Scattered Clouds,0,2013-01-20 14:56:00
9:56 AM,63.0,54.0,72,30.25,10.0,Calm,Calm,-,N/A,,Clear,0,2013-01-20 15:56:00
10:56 AM,70.0,55.0,59,30.24,10.0,SE,3.5,-,N/A,,Clear,140,2013-01-20 16:56:00
11:56 AM,72.0,52.0,49,30.21,10.0,South,3.5,-,N/A,,Clear,170,2013-01-20 17:56:00
12:56 PM,73.9,48.9,41,30.16,10.0,South,9.2,-,N/A,,Clear,170,2013-01-20 18:56:00
1:56 PM,73.9,48.9,41,30.12,10.0,Variable,5.8,-,N/A,,Clear,0,2013-01-20 19:56:00
2:56 PM,75.0,51.1,43,30.09,10.0,SSE,3.5,-,N/A,,Mostly Cloudy,160,2013-01-20 20:56:00
3:29 PM,75.2,51.8,44,30.10,10.0,Calm,Calm,-,N/A,,Mostly Cloudy,0,2013-01-20 21:29:00
3:56 PM,75.2,51.8,44,30.08,10.0,South,4.6,-,N/A,,Mostly Cloudy,180,2013-01-20 21:56:00
4:56 PM,72.0,53.1,51,30.09,10.0,SE,12.7,16.1,N/A,,Mostly Cloudy,130,2013-01-20 22:56:00
5:56 PM,66.9,53.1,61,30.10,10.0,SE,10.4,-,N/A,,Mostly Cloudy,130,2013-01-20 23:56:00
6:56 PM,63.0,54.0,72,30.12,10.0,ESE,6.9,-,N/A,,Mostly Cloudy,110,2013-01-21 00:56:00
7:56 PM,60.1,54.0,80,30.13,10.0,ESE,6.9,-,N/A,,Mostly Cloudy,120,2013-01-21 01:56:00
8:56 PM,57.9,53.1,84,30.13,10.0,ESE,3.5,-,N/A,,Clear,120,2013-01-21 02:56:00
9:56 PM,57.0,53.1,87,30.14,10.0,SE,4.6,-,N/A,,Clear,140,2013-01-21 03:56:00
10:56 PM,55.9,53.1,90,30.14,10.0,SSE,4.6,-,N/A,,Clear,150,2013-01-21 04:56:00
11:56 PM,55.0,53.1,93,30.14,10.0,Calm,Calm,-,N/A,,Clear,0,2013-01-21 05:56:00